User: anonymous   Login
Location: Caribou
(46.8667°N, 68.0167°W)
Time: 11:37:29
(UTC-05:00)
Language:

SL-08 RB Rocket - Orbit

View from above orbital plane
View from above orbital plane
View from above satellite
View from above satellite

Ground track
Ground track

The orbit data is extracted from the following two-line orbital elements,

1 26387U 00033D   15059.69017610  .00000739  00000-0  13760-3 0  9991
2 26387 098.0748 129.2766 0027920 120.3583 046.8693 14.67732988784706
Epoch (UTC): 28 February 2015 16:33:51
Eccentricity: 0.0027920
inclination: 98.0748°
perigee height: 648 km
apogee height: 688 km
right ascension of ascending node: 129.2766°
argument of perigee: 120.3583°
revolutions per day: 14.67732988
mean anomaly at epoch: 46.8693°
orbit number at epoch: 78470

The dashed part of the orbit path shows where the satellite is in the earth's shadow,  

DLR